Probability
0 0 0 0 0 0 0 0 0 0 0 0 0 0 0 0 0 0 0 0 0 0 0 0 0 0 0 0 0 0 0 0 0 0 0 0 0 0 0 0 0 0 0 0 0 0 0 0 0
0 0 0 0 0 0 0 0 0 0 0 0 0 0 0 0 0 0 0 0 0 0 0 0 0 0 0 0 0 0 0 0 0 0 0 0 0 0 0 0 0 0 0 0 0 0 0 0 0
0 0 0 0 0 0 0 0 0 0 0 0 0 0 0 0 0 0 0 0 0 0 0 0 0 0 0 0 0 0 0 0 0 0 0 0 0 0 0 0 0 0 0 0 0 0 0 0 0
0 0 0 0 0 0 0 0 0 0 0 0 0 0 0 0 0 0 0 0 0 0 0 0 0 0 0 0 0 0 0 0 0 0 0 0 0 0 0 0 0 0 0 0 0 0 0 0 0
0 0 0 0 0 0 0 0 0 0 0 0 0 0 0 0 0 0 0 0 0 0 0 0 0 0 0 0 0 0 0 0 0 0 0 0 0 0 0 0 0 0 0 0 0 0 0 0 0
0 0 0 0 0 0 0 0 0 0 0 0 0 0 0 0 0 0 0 0 0 0 0 0 0 0 0 0 0 0 0 0 0 0 0 0 0 0 0 0 0 0 0 0 0 0 0 0 0
0 0 0 0 0 0 0 0 0 0 0 0 0 0 0 0 0 0 0 0 0 0 0 0 0 0 0 0 0 0 0 0 0 0 0 0 0 0 0 0 0 0 0 0 0 0 0 0 0
0 0 0 0 0 0 0 0 0 0 0 0 0 0 0 0 0 0 0 0 0 0 0 0 0 0 0 0 0 0 0 0 0 0 0 0 0 0 0 0 0 0 0 0 0 0 0 0 0
0 0 0 0 0 0 0 0 0 0 0 0 0 0 0 0 0 0 0 0 0 0 0 0 0 0 0 0 0 0 0 0 0 0 0 0 0 0 0 0 0 0 0 0 0 0 0 0 0
0 0 0 0 0 0 0 0 0 0 0 0 0 0 0 0 0 0 0 0 0 0 0 0 0 0 0 0 0 0 0 0 0 0 0 0 0 0 0 0 0 0 0 0 0 0 0 0 0
0 0 0 0 0 0 0 0 0 0 0 0 0 0 0 0 0 0 0 0 0 0 0 0 0 0 0 0 0 0 0 0 0 0 0 0 0 0 0 0 0 0 0 0 0 0 0 0 0
0 0 0 0 0 0 0 0 0 0 0 0 0 0 0 0 0 0 0 0 0 0 0 0 0 0 0 0 0 0 0 0 0 0 0 0 0 0 0 0 0 0 0 0 0 0 0 0 0
0 0 0 0 0 0 0 0 0 0 0 0 0 0 0 0 0 0 0 0 0 0 0 0 0 0 0 0 0 0 0 0 0 0 0 0 0 0 0 0 0 0 0 0 0 0 0 0 0
0 0 0 0 0 0 0 0 0 0 0 0 0 0 0 0 0 0 0 0 0 0 0 0 0 0 0 0 0 0 0 0 0 0 0 0 0 0 0 0 0 0 0 0 0 0 0 0 0
0 0 0 0 0 0 0 0 0 0 0 0 0 0 0 0 0 0 0 0 0 0 0 0 0 0 0 0 0 0 0 0 0 0 0 0 0 0 0 0 0 0 0 0 0 0 0 0 0
0 0 0 0 0 0 0 0 0 0 0 0 0 0 0 0 0 0 0 0 0 0 0 0 0 0 0 0 0 0 0 0 0 0 0 0 0 0 0 0 0 0 0 0 0 0 0 0 0
0 0 0 0 0 0 0 0 0 0 0 0 0 0 0 0 0 0 0 0 0 0 0 0 0 0 0 0 0 0 0 0 0 0 0 0 0 0 0 0 0 0 0 0 0 0 0 0 0
0 0 0 0 0 0 0 0 0 0 0 0 0 0 0 0 0 0 0 0 0 0 0 0 0 0 0 0 0 0 0 0 0 0 0 0 0 0 0 0 0 0 0 0 0 0 0 0 0
0 0 0 0 0 0 0 0 0 0 0 0 0 0 0 0 0 0 0 0 0 0 0 0 0 0 0 0 0 0 0 0 0 0 0 0 0 0 0 0 0 0 0 0 0 0 0 0 0
0 0 0 0 0 0 0 0 0 0 0 0 0 0 0 0 0 0 0 0 0 0 0 0 0 0 0 0 0 0 0 0 0 0 0 0 0 0 0 0 0 0 0 0 0 0 0 0 0
0 0 0 0 0 0 0 0 0 0 0 0 0 0 0 0 0 0 0 0 0 0 0 0 0 0 0 0 0 0 0 0 0 0 0 0 0 0 0 0 0 0 0 0 0 0 0 0 0
0 0 0 0 0 0 0 0 0 0 0 0 0 0 0 0 0 0 0 0 0 0 0 0 0 0 0 0 0 0 0 0 0 0 0 0 0 0 0 0 0 0 0 0 0 0 0 0 0
0 0 0 0 0 0 0 0 0 0 0 0 0 0 0 0 0 0 0 0 0 0 0 0 0 0 0 0 0 0 0 0 0 0 0 0 0 0 0 0 0 0 0 0 0 0 0 0 0
0 0 0 0 0 0 0 0 0 0 0 0 0 0 0 0 0 0 0 0 0 0 0 0 0 0 0 0 0 0 0 0 0 0 0 0 0 0 0 0 0 0 0 0 0 0 0 0 0
0 0 0 0 0 0 0 0 0 0 0 0 0 0 0 0 0 0 0 0 0 0 0 0 0 0 0 0 0 0 0 0 0 0 0 0 0 0 0 0 0 0 0 0 0 0 1 1 1
0 0 0 0 0 0 0 0 0 0 0 0 0 0 0 0 0 0 0 0 0 0 0 0 0 0 0 0 0 0 0 0 0 0 1 1 0 0 0 0 0 0 0 0 0 0 1 2 2
0 0 0 0 0 0 0 0 0 0 0 0 0 0 0 0 0 0 0 0 0 0 0 0 0 0 0 0 0 0 0 0 0 0 1 2 1 1 1 1 0 0 0 1 1 0 0 1 2
0 0 0 0 0 0 0 0 0 0 0 0 0 0 0 0 0 0 0 0 0 0 0 0 0 0 0 0 0 0 0 0 0 0 1 2 1 1 0 1 1 1 1 2 2 1 0 1 2
0 0 0 0 0 0 0 0 0 0 0 0 0 0 0 0 0 0 0 0 0 0 0 0 0 0 0 0 0 0 0 0 0 0 0 1 1 0 0 0 0 1 2 4 3 2 1 0 1
0 0 0 0 0 0 0 0 0 0 0 0 0 0 0 0 0 0 0 0 0 0 0 0 0 0 0 0 0 0 0 0 0 0 0 0 0 0 0 0 0 1 3 6 5 3 2 1 0
Wind_Speed
17 14 8 3 3 4 3 5 4 4 5 6 5 4 5 9 6 6 3 7 10 13 13 10 9 10 11 11 11 10 11 11 11 11 11 11 11 12 12 12 12 12 13 13 13 13 13 13 13
14 13 6 3 4 2 4 5 5 8 7 4 2 1 2 8 8 7 4 7 9 12 12 10 10 10 11 11 10 9 10 10 10 10 10 10 11 11 11 11 11 12 12 12 12 12 12 12 12
13 10 4 4 3 3 5 6 8 8 5 1 1 2 5 6 6 5 6 7 8 10 10 12 11 10 10 10 10 9 9 9 9 9 9 10 10 10 10 10 10 10 11 11 11 11 11 11 11
6 4 4 4 5 3 6 6 6 6 4 1 2 4 6 5 4 6 8 7 8 9 11 11 10 10 10 10 9 9 9 9 9 8 8 9 9 9 9 9 9 9 10 10 10 10 10 10 9
4 3 4 5 4 3 5 6 2 2 5 4 1 3 7 4 7 9 7 6 7 8 10 11 10 9 9 9 9 9 8 8 8 8 8 8 8 8 8 8 8 8 9 9 9 9 9 9 8
4 3 4 5 3 3 5 3 1 2 3 3 1 1 6 5 6 6 6 6 7 7 9 10 9 8 8 8 8 8 8 8 8 8 8 8 8 8 7 7 7 7 8 8 8 8 8 7 6
3 4 6 8 4 1 4 3 1 2 1 3 2 1 7 6 5 6 5 5 6 7 8 9 7 8 7 8 8 8 8 7 7 8 8 7 6 6 6 5 6 6 7 7 7 7 7 6 6
4 4 6 7 6 2 4 3 1 3 2 3 2 2 6 6 6 5 4 4 5 6 6 7 8 8 7 7 8 8 8 8 8 8 8 7 7 6 6 5 5 6 6 7 7 7 6 6 5
3 4 6 6 5 2 5 2 3 1 1 2 3 5 6 10 7 5 4 3 4 4 4 5 6 7 8 8 9 8 8 8 8 7 9 8 5 5 5 6 6 6 6 6 7 7 6 5 4
3 4 6 5 5 4 2 0 1 1 4 3 5 6 7 8 7 6 6 6 6 6 5 5 5 5 6 6 7 6 6 6 6 5 7 5 5 4 6 8 8 7 6 7 7 7 6 5 3
4 5 5 5 6 6 4 2 2 4 5 4 3 6 6 5 5 7 7 7 7 7 6 6 6 5 5 4 5 4 4 5 6 7 7 5 4 3 4 4 4 5 6 4 5 5 4 4 4
6 6 6 5 3 4 5 5 5 6 5 4 4 3 5 5 6 7 7 7 7 7 8 7 7 6 5 5 4 4 3 4 4 5 7 5 3 3 4 4 5 4 4 4 4 4 5 5 4
8 7 6 5 3 4 6 7 8 8 6 3 1 1 4 6 7 7 6 6 6 7 8 8 7 7 6 5 4 4 4 4 5 5 6 6 4 4 4 4 4 5 4 5 5 5 6 5 4
4 6 7 6 5 5 7 9 9 9 6 5 4 5 6 6 6 6 6 6 7 7 8 8 8 8 7 6 5 4 4 4 4 5 6 7 5 5 5 5 5 5 5 5 5 6 5 5 4
5 6 8 8 8 4 4 10 12 12 8 7 6 7 7 7 6 6 6 7 7 7 7 8 9 9 8 8 7 5 5 5 5 5 7 8 7 6 6 5 5 5 5 5 5 5 4 4 5
5 6 8 6 7 5 4 11 7 5 6 8 8 7 7 7 7 7 6 6 6 6 7 8 7 9 9 8 7 6 5 6 5 5 6 8 9 8 6 6 6 6 5 5 5 4 4 4 4
7 8 9 6 8 6 8 9 6 4 6 8 8 8 7 7 7 6 5 5 6 6 6 7 8 9 9 9 7 6 6 6 5 6 6 8 9 9 7 6 6 7 6 6 6 5 5 5 5
8 8 8 8 6 7 10 11 9 7 9 9 8 7 7 7 6 5 5 5 5 5 6 6 7 8 8 7 6 6 7 7 6 6 7 9 9 10 9 7 8 7 6 7 6 7 6 5 5
6 7 9 6 3 5 10 12 12 10 10 10 9 8 8 7 5 4 4 4 4 4 4 5 6 7 7 6 7 7 8 7 7 7 9 10 9 10 10 8 8 8 8 9 8 7 7 7 4
11 11 9 5 2 4 8 13 13 13 13 12 10 9 8 6 5 4 4 3 3 4 4 5 6 7 7 7 7 6 6 6 7 7 9 11 11 11 10 11 9 9 8 9 10 9 6 6 6
14 13 11 7 3 5 7 12 13 12 12 11 10 9 7 6 5 4 3 3 3 4 4 4 5 6 7 7 5 4 4 4 6 8 9 11 12 12 11 12 11 10 10 10 11 10 11 9 7
13 10 9 6 4 5 4 8 7 7 9 10 10 9 7 6 5 4 3 3 3 3 3 4 5 6 6 6 6 8 8 9 10 8 8 10 12 13 13 12 13 12 10 11 11 12 10 9 8
4 2 5 6 6 7 7 9 8 7 9 9 8 8 7 6 5 4 3 3 2 2 3 4 5 5 5 6 8 8 9 9 7 6 8 10 10 13 13 13 13 13 12 12 11 12 12 10 10
5 3 1 4 4 10 12 10 10 7 10 7 6 6 6 4 4 3 2 2 2 1 2 3 4 5 5 6 8 9 10 10 8 9 9 9 8 10 13 14 14 13 12 13 13 13 13 12 12
8 7 4 6 7 10 9 10 10 6 7 7 7 5 4 3 2 2 1 1 1 1 2 3 3 5 5 6 7 8 10 10 11 10 10 9 8 8 12 13 14 13 14 13 13 13 13 14 13
14 11 8 7 6 4 5 11 9 4 5 4 4 3 2 2 2 1 1 1 1 2 3 3 3 4 5 5 6 7 8 7 8 10 9 9 8 9 9 13 13 14 14 14 13 12 13 11 14
12 12 6 2 1 2 6 6 5 4 5 5 5 5 4 2 1 1 1 1 1 2 3 3 4 4 5 5 5 6 7 7 8 8 9 8 8 7 9 11 13 14 14 15 14 12 13 12 14
8 8 5 6 6 7 7 8 7 7 8 7 5 4 3 2 1 1 1 1 2 2 3 3 4 4 5 5 5 5 6 7 8 7 8 8 8 8 8 9 11 12 14 14 15 13 13 14 14
12 11 8 7 5 5 5 6 4 8 8 7 5 4 3 2 1 1 1 1 2 2 3 3 4 4 4 5 5 6 6 7 7 7 8 8 8 8 9 9 10 11 12 13 14 14 13 15 14
13 13 13 8 7 5 4 7 1 5 6 6 5 4 3 2 1 1 1 2 2 3 4 4 4 4 5 5 5 6 6 6 7 8 8 7 8 7 8 8 9 10 11 11 13 14 14 14 15
Wind_Direction
311 306 300 278 260 237 95 91 92 95 79 59 45 357 21 45 34 87 137 114 115 120 127 135 130 131 130 128 126 123 122 119 116 113 110 109 107 105 103 101 100 98 95 94 92 90 89 87 87
303 303 297 255 263 261 111 110 92 72 75 79 95 293 59 81 83 106 121 110 123 124 134 138 131 133 134 133 131 128 127 124 121 119 116 114 112 110 108 105 104 103 101 98 96 95 94 92 90
294 284 277 275 276 342 80 85 89 87 86 79 119 53 38 58 88 113 122 133 125 122 127 128 135 136 137 138 137 135 132 130 128 125 122 120 117 114 112 110 109 108 107 104 101 100 99 96 93
303 290 251 259 279 28 56 76 91 117 118 43 325 107 86 46 58 98 123 141 127 124 122 131 138 140 141 141 142 142 140 138 135 133 130 127 123 120 116 114 113 111 111 110 108 106 105 101 98
274 268 267 266 273 81 70 62 71 157 151 149 259 89 92 84 91 109 135 137 128 126 123 136 140 142 145 147 148 148 145 144 142 140 138 134 131 127 124 120 118 117 116 114 113 112 111 108 105
295 278 272 266 255 113 98 78 271 244 114 105 311 78 97 107 106 125 137 143 137 128 125 134 139 144 148 152 153 153 152 150 150 147 143 141 138 135 132 128 126 125 124 125 124 121 117 118 114
302 291 277 286 290 133 110 105 280 296 152 99 4 42 111 113 115 129 137 150 138 133 133 141 153 157 154 155 158 159 157 155 156 153 146 140 138 137 133 131 137 137 135 134 135 133 132 130 127
311 289 267 271 281 274 111 124 63 338 19 65 359 1 109 122 121 125 139 150 136 138 147 153 162 167 167 166 168 166 164 163 161 156 150 146 144 144 145 147 149 152 150 148 147 149 151 147 146
289 259 260 266 281 302 109 141 125 22 303 108 72 58 91 119 128 136 148 162 150 154 163 162 166 171 171 173 172 168 168 168 164 159 159 158 169 168 168 172 161 163 162 163 163 166 165 158 169
225 247 254 292 326 339 68 150 119 226 239 198 151 124 126 137 151 167 181 188 182 183 186 178 181 178 173 176 162 173 178 174 181 173 172 187 193 179 170 162 161 166 169 175 180 183 179 181 191
226 243 276 300 344 346 341 316 299 264 256 247 174 144 143 157 182 193 197 199 195 188 190 190 188 182 177 172 165 175 178 176 190 183 182 194 191 165 154 151 159 169 179 184 186 186 203 213 202
251 259 279 297 358 346 313 302 283 259 270 343 17 117 157 193 210 210 208 202 192 190 191 193 189 186 185 180 182 179 177 177 185 186 183 185 184 179 172 169 173 180 187 191 186 193 213 216 214
241 257 264 283 301 288 290 280 276 264 265 271 301 237 209 213 215 214 212 207 196 194 189 188 187 189 189 191 192 191 191 186 187 183 186 187 185 190 186 182 180 185 187 189 192 198 208 209 214
265 265 261 262 262 259 261 267 263 257 257 243 229 235 234 231 224 217 210 210 204 199 194 186 188 191 190 196 200 199 198 195 195 189 190 194 195 193 191 188 187 193 191 190 193 202 202 202 206
271 272 263 242 235 237 271 263 243 247 251 249 240 238 237 237 231 225 218 213 208 201 194 190 189 190 194 200 205 206 202 198 202 199 196 198 203 199 192 192 192 197 196 195 194 207 201 199 203
226 240 245 219 207 202 220 259 254 230 232 246 246 246 242 237 231 228 223 216 210 200 197 196 189 190 196 199 203 209 207 206 204 204 202 203 205 204 198 196 198 194 193 194 196 201 200 206 208
211 227 233 224 196 198 213 256 263 265 261 253 250 249 247 244 237 226 216 212 207 202 197 196 192 192 196 198 201 208 210 214 210 205 207 208 206 206 203 202 200 192 193 198 201 202 198 203 210
204 222 231 225 191 209 230 250 263 264 260 259 257 254 250 248 240 228 217 209 203 201 198 197 195 195 194 194 200 208 213 217 218 215 212 209 208 207 206 206 203 195 196 201 201 203 204 204 202
260 250 245 243 207 233 246 256 259 257 255 254 252 250 247 243 238 226 217 205 193 194 199 202 202 199 192 193 199 205 214 214 217 221 220 216 211 207 208 209 206 202 203 204 201 199 205 210 195
245 255 258 261 211 246 265 266 262 254 250 246 246 245 241 242 245 231 210 196 186 194 206 213 214 208 202 202 203 206 207 214 218 220 223 222 218 212 210 211 210 207 207 206 205 201 202 204 189
228 235 245 256 287 258 274 274 248 244 239 240 240 239 236 233 238 235 217 201 191 199 209 220 224 222 214 208 200 204 208 217 218 219 220 221 220 218 215 214 214 212 209 211 209 204 203 205 201
231 225 238 250 261 258 227 277 254 239 235 228 227 225 223 227 227 221 215 222 213 209 214 226 231 230 224 210 207 206 212 221 223 221 222 220 218 219 218 216 215 216 215 215 212 210 208 202 204
219 179 221 237 248 264 238 258 262 224 233 225 211 208 207 214 216 219 220 219 224 217 221 230 235 234 227 220 217 218 225 230 230 224 225 224 220 219 218 217 217 218 218 218 214 210 211 211 209
162 123 215 239 238 247 223 229 264 215 219 209 198 197 198 198 204 213 217 213 232 235 232 236 241 240 232 226 226 225 230 233 233 231 231 227 223 219 217 217 218 219 219 219 218 216 214 215 215
171 162 186 206 218 239 201 214 247 213 196 190 190 191 178 175 192 203 215 239 262 280 270 254 251 254 248 237 234 234 235 235 234 234 235 233 230 225 218 215 218 219 221 221 218 218 218 216 216
193 190 190 203 217 234 194 221 245 203 170 167 175 172 165 184 199 204 217 236 270 284 286 278 267 264 262 255 249 245 244 241 241 239 239 236 235 232 223 216 218 219 220 222 221 222 220 217 218
186 209 226 259 244 259 237 239 249 186 186 190 189 185 190 196 197 208 243 275 293 297 292 284 277 273 270 265 263 257 253 251 252 251 246 246 244 240 230 221 220 219 219 220 220 225 224 220 220
201 173 174 202 206 231 239 223 220 192 194 188 182 176 181 176 186 231 271 299 303 295 291 293 281 274 271 269 267 267 260 258 259 259 254 250 250 246 239 231 225 223 222 220 220 224 225 224 224
193 195 191 192 206 207 237 242 203 175 173 168 167 169 171 175 201 244 268 288 303 303 299 295 294 290 287 281 276 273 269 266 265 263 263 260 255 249 244 239 235 230 226 222 223 225 223 226 227
206 203 196 195 210 212 235 257 130 131 143 149 163 167 157 179 204 249 310 329 322 313 308 302 299 296 291 288 285 280 278 275 271 268 268 267 265 259 251 246 242 239 234 226 225 226 223 224 225